Find Starlink 30493

NORAD ID: 58116 Int'l Des: 2023-161 Owner: SPXS Country: US Constellation: starlink operational
LEOCIRCULAR

現在のビュー

3D地球を読み込み中...

About Starlink 30493

Starlink 30493 (NORAD 58116) is a starlink constellation satellite (v2 mini) launched Oct 21, 2023 by SPXS of US. It operates in LEO, CIRCULAR orbit with a mass of 730.00 kg.

次回通過

Passes for default location (London). Set your location on the main map for personalized predictions.

高度履歴

Loading altitude history...

軌道要素

1 58116U 23161V 26237.25001157 -.00021142 00000-0 -61632-3 0 9998
2 58116 53.1591 102.4831 0001233 98.3975 146.1831 15.34401423 5619
Epoch: Aug 25, 2026 • Age: 7 hours

現在のステータス

高度 463.4 km
遠地点 / 近地点 N/A
速度 7.64 km/s
衛星直下点 2.97°N, 61.99°W
打ち上げ日 Oct 21, 2023
運用期間 2.8 years
タイプ internet

技術仕様

分類 Payload
質量 730.00 kg
乾燥質量 700.00 kg
総質量 730.00 kg
長さ 0.30 m
直径 4.10 m
スパン 29.00 m
形状 Box + pan
製造者 SPXS
バスタイプ Starlink V2M
フェーズステータス In Orbit
所有者/国 SPXS/US

Most Searched